TimeEDT,TemperatureF,Dew PointF,Humidity,Sea Level PressureIn,VisibilityMPH,Wind Direction,Wind SpeedMPH,Gust SpeedMPH,PrecipitationIn,Events,Conditions,WindDirDegrees,DateUTC
12:29 AM,21.0,17.1,85,29.18,0.8,Variable,5.8,-,0.00,Snow,Light Snow,0,2014-03-13 04:29:00
12:54 AM,21.0,16.0,81,29.18,0.8,North,11.5,25.3,0.00,Snow,Light Snow,360,2014-03-13 04:54:00
1:06 AM,21.0,16.0,81,29.17,1.2,NW,8.1,-,0.00,Snow,Light Snow,320,2014-03-13 05:06:00
1:16 AM,19.0,15.1,85,29.19,1.8,Variable,3.5,-,0.00,Snow,Light Snow,0,2014-03-13 05:16:00
1:23 AM,19.9,15.1,81,29.20,2.5,Variable,5.8,-,0.00,Snow,Light Snow,0,2014-03-13 05:23:00
1:46 AM,19.9,12.9,74,29.22,4.0,NW,8.1,17.3,0.00,Snow,Light Snow,310,2014-03-13 05:46:00
1:54 AM,18.0,12.9,81,29.25,5.0,West,6.9,17.3,0.00,Snow,Light Snow,280,2014-03-13 05:54:00
2:54 AM,15.1,9.0,77,29.25,7.0,West,9.2,19.6,0.00,Snow,Light Snow,280,2014-03-13 06:54:00
3:46 AM,14.0,8.1,77,29.23,6.0,West,9.2,-,0.00,Snow,Light Snow,270,2014-03-13 07:46:00
3:54 AM,12.9,7.0,77,29.26,6.0,West,11.5,-,0.00,Snow,Light Snow,270,2014-03-13 07:54:00
4:54 AM,12.0,6.1,77,29.29,3.0,WNW,9.2,-,0.00,Snow,Light Snow,300,2014-03-13 08:54:00
5:54 AM,12.9,5.0,71,29.33,5.0,Variable,6.9,-,0.00,Snow,Light Snow,0,2014-03-13 09:54:00
6:54 AM,10.9,3.0,70,29.37,2.5,NNW,8.1,-,0.00,Snow,Light Snow,340,2014-03-13 10:54:00
7:22 AM,10.9,3.0,70,29.36,2.0,Variable,6.9,21.9,0.00,Snow,Light Snow,0,2014-03-13 11:22:00
7:42 AM,10.0,3.0,73,29.38,1.5,WNW,11.5,20.7,0.00,Snow,Light Snow,290,2014-03-13 11:42:00
7:54 AM,9.0,1.9,73,29.41,1.0,WNW,12.7,17.3,0.00,Snow,Light Snow,300,2014-03-13 11:54:00
8:01 AM,9.0,1.9,73,29.39,0.8,WNW,11.5,-,0.00,Snow,Light Snow,290,2014-03-13 12:01:00
8:09 AM,9.0,1.9,73,29.39,1.0,Variable,4.6,-,0.00,Snow,Light Snow,0,2014-03-13 12:09:00
8:51 AM,10.4,1.4,67,29.41,1.0,NW,10.4,18.4,0.00,Snow,Light Snow,320,2014-03-13 12:51:00
8:54 AM,10.0,-0.0,64,29.44,2.5,NNW,9.2,18.4,0.00,Snow,Light Snow,330,2014-03-13 12:54:00
9:01 AM,10.0,1.0,67,29.42,4.0,NNW,5.8,-,0.00,Snow,Light Snow,330,2014-03-13 13:01:00
9:47 AM,10.0,1.0,67,29.45,2.0,NW,9.2,20.7,0.00,Snow,Light Snow,310,2014-03-13 13:47:00
9:54 AM,10.0,1.9,70,29.49,1.8,Variable,6.9,-,0.00,Snow,Light Snow,0,2014-03-13 13:54:00
10:34 AM,10.9,1.9,67,29.47,2.5,NW,8.1,17.3,0.00,Snow,Light Snow,310,2014-03-13 14:34:00
10:54 AM,10.9,1.0,64,29.51,3.0,Variable,6.9,24.2,0.00,Snow,Light Snow,0,2014-03-13 14:54:00
11:54 AM,12.0,3.0,67,29.53,6.0,NW,9.2,21.9,0.00,,Haze,310,2014-03-13 15:54:00
12:54 PM,12.9,3.9,67,29.56,8.0,NW,11.5,18.4,N/A,,Overcast,320,2014-03-13 16:54:00
1:54 PM,15.1,3.9,61,29.57,6.0,West,12.7,20.7,0.00,Snow,Light Snow,270,2014-03-13 17:54:00
2:47 PM,14.0,3.9,64,29.56,2.5,West,20.7,32.2,0.00,,Overcast,280,2014-03-13 18:47:00
2:54 PM,15.1,3.9,61,29.60,2.5,West,12.7,40.3,0.00,,Overcast,280,2014-03-13 18:54:00
3:03 PM,15.1,3.9,61,29.57,7.0,West,11.5,26.5,0.00,,Overcast,280,2014-03-13 19:03:00
3:54 PM,16.0,5.0,62,29.63,10.0,NW,9.2,-,0.00,,Overcast,310,2014-03-13 19:54:00
4:54 PM,16.0,3.0,57,29.68,7.0,NW,15.0,32.2,0.00,,Partly Cloudy,310,2014-03-13 20:54:00
5:54 PM,15.1,1.0,54,29.72,10.0,NW,16.1,23.0,N/A,,Partly Cloudy,310,2014-03-13 21:54:00
6:54 PM,14.0,-0.9,52,29.77,10.0,NW,10.4,20.7,N/A,,Clear,320,2014-03-13 22:54:00
7:54 PM,12.9,-2.0,51,29.83,10.0,NW,4.6,-,N/A,,Clear,310,2014-03-13 23:54:00
8:54 PM,12.9,-2.0,51,29.88,10.0,North,-9999.0,-,N/A,,Clear,0,2014-03-14 00:54:00
9:54 PM,12.0,-4.0,49,29.93,10.0,NNW,10.4,16.1,N/A,,Clear,330,2014-03-14 01:54:00
10:54 PM,10.9,-5.1,49,29.96,10.0,NW,4.6,-,N/A,,Clear,310,2014-03-14 02:54:00
11:54 PM,7.0,-2.0,67,29.98,10.0,SW,3.5,-,N/A,,Clear,230,2014-03-14 03:54:00